Regional Weather Roundup
Issued by NWS Sioux Falls, SD

Home | Current Version | Previous Version | Text Only | Print | Product List | Glossary On
Versions: 1 2 3 4 5 6 7 8 9 10 11 12 13 14 15 16 17 18 19 20 21 22 23 24 25 26 27 28 29 30 31 32 33 34 35 36 37 38 39 40 41 42 43 44 45 46 47 48 49 50
996
ASUS43 KFSD 211610
RWRFSD

WEATHER ROUNDUP FOR SE SOUTH DAKOTA/SW MINNESOTA/NW IOWA
NATIONAL WEATHER SERVICE SIOUX FALLS SD
1100 AM CDT THU MAY 21 2015

NOTE: "FAIR" INDICATES FEW OR NO CLOUDS BELOW 12,000 FEET WITH NO
SIGNIFICANT WEATHER AND OR OBSTRUCTIONS TO VISIBILITY.


SDZ038>040-050-052>070-211700-
SOUTHEAST SOUTH DAKOTA

CITY           SKY/WX    TMP DP  RH WIND       PRES   REMARKS
BROOKINGS      SUNNY     63  34  34 NW21      30.17S
CHAMBERLAIN    SUNNY     61  40  44 W10G17    30.25F
HURON          SUNNY     68  34  28 NW20G25   30.19F
MADISON        FAIR      63  34  34 NW21G31   30.18S
MITCHELL       SUNNY     67  38  34 NW13      30.22F
SIOUX FALLS    MOSUNNY   65  37  35 NW15G23   30.18S
WINNER         FAIR      60  36  40 NW13      30.27F
YANKTON        SUNNY     61  45  55 W12       30.22S
$$

MNZ071-072-080-081-089-090-097-098-211700-
SOUTHWEST MINNESOTA

CITY           SKY/WX    TMP DP  RH WIND       PRES   REMARKS
FAIRMONT       SUNNY     66  36  32 NW17G24   30.09S
JACKSON        SUNNY     66  32  28 NW23G33   30.11F
LUVERNE        SUNNY     68  32  26 NW22G29   30.16S
MARSHALL       SUNNY     64  36  34 N16G24    30.12S
MONTEVIDEO     SUNNY     64  36  34 N16G22    30.12S
PIPESTONE      SUNNY     64  30  27 NW18G28   30.15S
REDWOOD FALLS  SUNNY     65  38  36 NW15      30.09F
TRACY          SUNNY     66  35  31 NW16      30.13S
WINDOM         SUNNY     66  32  28 NW16G23   30.11S
WORTHINGTON    SUNNY     66  36  32 NW23G32   30.13F
$$

IAZ001>003-012>014-020>022-031-032-NEZ013-014-SDZ071-211700-
NORTHWEST IOWA

CITY           SKY/WX    TMP DP  RH WIND       PRES   REMARKS
CHEROKEE       SUNNY     60  46  59 NW10      30.19S
DENISON        SUNNY     63  41  45 NW12      30.19S
ESTHERVILLE    SUNNY     68  34  28 NW24G31   30.11F
LE MARS        SUNNY     63  45  51 W14G21    30.21F
ORANGE CITY    SUNNY     61  45  55 NW17      30.18F
SHELDON        SUNNY     64  39  39 NW15G23   30.16S
SIOUX CITY     SUNNY     65  42  43 NW13      30.21F
SPENCER        SUNNY     65  40  39 W18G28    30.15S
STORM LAKE     SUNNY     61  45  55 W18G24    30.18F
$$

ABBREVIATIONS USED IN REMARKS
   TC - TEMPERATURE IN CELSIUS
  WCI - WIND CHILL INDEX
   HX - HEAT INDEX
  VSB - VISIBILITY




USA.gov is the U.S. government's official web portal to all federal, state and local government web resources and services.